Regional Weather Roundup
Issued by NWS

Home | Current Version | Previous Version | Text Only | Print | Product List | Glossary On
Versions: 1 2 3 4 5 6 7 8 9 10 11 12 13 14 15 16 17 18 19 20 21 22 23 24 25 26 27 28
000
ASUS42 KKEY 231910
RWRKEY

FLORIDA REGIONAL WEATHER ROUNDUP FOR THE FLORIDA KEYS
NATIONAL WEATHER SERVICE KEY WEST FLORIDA
300 PM EDT SUN APR 23 2017

...SOUTH FLORIDA AND THE KEYS...

CITY           SKY/WX    TMP DP  RH WIND       PRES   REMARKS
FORT MYERS     PTSUNNY   81  70  69 E8        29.79F
SW REGIONAL AP PTSUNNY   79  69  71 E9        29.80F
NAPLES         PTSUNNY  N/A N/A N/A NE9       29.80F
MIAMI          LGT RAIN  72  69  90 N7        29.79F
WEST KENDALL   RAIN      71  68  90 E3        29.78F
HOMESTEAD      TSTM      70  70 100 E9        29.78R VSB 1
MARATHON       MOSUNNY   82  75  79 SW6       29.77F
BOCA CHICA NAS PTSUNNY   79  73  82 N12       29.78F
KEY WEST INTL  MOSUNNY   83  74  74 N10       29.79F

...INTERNATIONAL WEATHER...

CITY           SKY/WX    TMP DP  RH WIND       PRES   REMARKS
NASSAU BAHAMAS LGT RAIN  79  75  89 SE13G25   29.78F
CANCUN MEXICO  MOSUNNY   86  72  62 NE9       29.85F HX  92
COZUMEL MEXICO MOSUNNY   86  70  58 NW5       29.84F HX  90

ADJACENT COASTAL WATERS...

STATION/POSITION TIME  SKY/WX   TEMP    WIND        PRES    WAVE
                                AIR SEA DIR/SP/G            HT/PER
                 (UTC)          (F)     (DEG/KT/KT) (MB)    (FT/S)
PULASKI SHOAL LI 1900            77     330/  8/  9 1009.2F
SAND KEY         1850            76     340/ 11/ 12 1009.3F
LONG KEY         1700            78 76  190/ 10/ 11 1009.3F
MOLASSES REEF    1900            77 79  210/  9/  9 1008.2F
FOWEY ROCKS      1900            73 78  180/  7/ 11 1009.3R
Buoy 42097       1900                                 N/A     2/ 5

$$




USA.gov is the U.S. government's official web portal to all federal, state and local government web resources and services.